Theta_e
295 296 296 297 296 295 295 295 295 295 296 297 297 296 299 299 293 292 299 302 301 302 305 308 309 309 309 313 316 320 321 322 323 320 324 327 328 328 329 330 330 329 329 331 331 331 331 331 330 331 331 332 333 332 333 332 332 330 330 330 329 329 328 327 326 326 325 324 323 321 320 320 319 319 319 320 320 319 318 317 317 315 315 313 311 311 310
293 294 295 296 295 295 295 295 296 296 296 296 298 299 300 300 300 301 301 302 302 305 307 311 315 316 314 316 318 320 320 320 322 324 325 326 327 327 328 328 329 329 330 331 331 331 330 329 329 330 330 330 331 331 332 331 330 331 331 330 328 328 328 327 327 326 325 323 321 321 320 320 319 318 318 319 319 318 317 317 316 315 314 313 311 311 310
291 294 295 296 296 295 294 295 296 296 296 296 298 299 300 300 299 300 300 301 302 309 314 317 320 321 321 319 317 319 319 322 323 324 325 325 326 326 327 328 328 328 330 331 331 329 329 328 329 330 330 331 331 331 331 330 330 331 331 330 329 328 327 327 327 326 324 323 321 319 320 319 318 317 317 318 318 317 317 316 315 315 313 311 311 310 311
288 293 294 294 296 295 295 295 295 295 295 295 297 296 300 299 298 300 300 299 300 307 313 319 319 320 320 319 320 320 321 323 324 324 324 325 326 326 326 327 328 329 330 330 329 328 328 328 329 330 331 331 329 330 330 329 329 331 330 329 328 327 327 326 326 324 323 321 319 317 317 316 316 316 316 317 317 317 316 316 315 315 313 311 311 311 311
287 293 295 295 295 294 291 291 295 297 298 298 298 299 301 301 303 298 293 300 308 311 313 314 317 319 319 319 320 321 322 322 322 324 325 326 327 327 327 328 328 329 329 329 329 328 328 327 329 330 331 330 329 330 330 330 329 329 330 329 328 327 327 326 325 322 319 316 316 316 316 316 316 316 316 317 318 317 316 316 315 314 312 311 311 311 311
288 293 295 296 291 284 286 298 302 300 298 298 296 297 299 302 303 302 304 307 311 311 311 312 314 318 318 320 322 324 324 323 323 324 325 326 325 326 328 328 330 330 329 329 328 328 328 329 330 331 331 330 331 331 330 330 328 328 328 328 329 327 326 324 322 320 318 315 314 315 315 315 315 315 316 317 318 317 316 315 314 313 313 311 311 311 311
288 292 293 288 282 285 299 302 302 302 301 299 298 300 301 302 303 303 303 304 305 312 313 315 315 320 321 323 323 323 324 324 324 324 324 324 326 328 328 329 329 330 329 328 328 328 328 328 329 329 329 330 331 329 329 327 327 326 326 327 325 324 323 324 323 321 318 316 314 314 314 314 315 315 316 317 317 317 315 314 313 312 312 310 310 311 311
292 289 289 281 284 298 300 302 303 304 302 301 300 298 301 302 303 303 303 304 305 311 314 316 319 319 321 323 322 324 325 326 325 325 325 326 327 328 329 330 330 330 328 328 329 329 327 327 328 329 329 329 329 328 330 327 325 325 325 322 319 319 318 319 319 318 317 315 315 314 314 314 315 315 316 317 316 316 315 314 314 313 312 311 310 310 310
286 288 288 288 296 296 298 298 300 300 297 298 296 290 297 303 304 304 304 306 307 311 314 317 318 320 320 319 317 325 326 326 326 327 328 328 329 330 331 331 331 332 330 329 330 328 327 327 327 328 328 327 327 328 327 327 326 325 322 319 317 317 316 317 318 318 316 315 314 314 314 314 315 317 317 316 316 316 314 313 312 312 312 311 310 310 309
293 289 288 288 287 284 290 300 304 305 306 305 304 299 296 305 306 308 308 307 309 312 314 317 319 320 316 312 316 324 327 328 327 328 329 330 330 331 332 332 331 331 330 330 330 328 327 328 328 328 327 327 327 326 326 326 325 323 321 317 316 316 316 317 317 318 317 315 314 314 315 314 315 317 317 317 316 315 313 312 311 312 311 310 309 310 309
290 289 286 286 285 288 297 301 303 305 307 307 306 299 294 303 307 310 309 306 309 312 314 318 320 316 310 309 315 324 327 327 328 328 330 330 331 331 331 331 330 330 330 328 326 326 326 326 327 327 326 326 324 324 324 324 325 323 322 319 316 314 314 316 316 317 316 316 316 315 315 315 317 317 316 316 316 315 313 312 312 311 310 309 308 309 310
291 290 288 287 290 290 301 305 306 307 307 309 303 289 290 308 309 310 307 307 313 316 318 319 317 312 302 311 315 325 326 328 329 329 329 330 331 331 331 332 332 331 330 326 326 326 326 326 326 326 327 326 324 323 323 325 324 323 323 322 319 317 316 316 316 315 316 316 316 314 313 316 318 317 316 316 315 314 313 312 310 310 308 308 308 308 308
290 289 290 292 294 301 309 306 306 306 309 304 290 286 299 312 311 311 311 313 317 319 318 321 313 318 321 319 321 326 327 327 328 330 331 331 332 331 331 330 324 330 329 327 326 327 328 327 327 327 326 325 323 323 324 322 321 321 321 320 319 317 317 317 317 316 316 316 315 315 315 317 318 316 315 314 313 313 313 312 311 311 309 307 306 306 306
290 291 289 289 293 303 309 308 307 307 301 289 289 304 315 314 314 316 317 319 320 319 318 319 320 322 323 324 326 326 326 328 328 329 329 329 330 332 329 325 327 329 328 328 327 328 328 327 327 326 324 323 322 322 322 321 322 321 318 314 313 314 313 314 314 314 315 315 315 315 315 317 315 314 314 313 312 309 307 309 307 305 305 304 303 303 304
293 291 289 288 285 297 311 307 306 307 294 297 310 315 317 319 318 319 320 320 320 320 320 321 323 323 324 324 325 326 327 327 327 328 328 330 328 329 330 329 329 328 327 326 326 327 328 327 326 325 325 323 324 322 322 321 320 319 317 314 312 312 312 313 313 314 314 314 314 314 314 315 314 312 312 310 309 309 307 306 306 305 304 304 303 303 304
288 290 287 289 299 306 312 308 297 310 312 313 314 315 315 318 319 320 320 321 322 321 321 322 323 324 323 323 325 326 327 328 328 329 329 329 330 330 329 329 328 328 327 327 327 327 327 326 326 326 326 323 322 321 322 323 320 317 317 315 313 313 312 313 312 312 312 313 313 314 313 312 312 310 310 310 308 307 306 305 304 304 303 303 303 302 302
296 293 298 305 309 312 314 314 313 316 318 318 315 315 315 316 318 322 319 319 322 323 324 324 323 322 323 324 326 325 327 328 327 327 328 329 329 328 327 328 327 327 327 326 326 326 327 327 327 327 327 324 321 321 324 324 320 317 317 316 313 312 313 313 312 311 311 311 311 311 312 311 309 308 307 307 304 304 305 304 304 303 303 303 302 302 301
306 307 309 311 311 312 313 315 316 315 316 317 317 317 316 317 319 322 321 322 323 323 324 322 322 322 323 323 324 325 326 326 327 328 328 329 329 328 328 328 327 328 328 327 326 325 325 326 326 326 326 326 323 324 325 325 324 318 318 315 312 311 310 310 310 309 309 309 309 310 309 309 308 307 306 305 304 304 304 304 305 304 303 303 302 302 302
299 293 304 309 309 311 312 312 313 315 317 316 316 317 317 318 320 321 323 323 324 324 323 319 320 323 324 323 323 324 325 326 326 327 327 329 329 328 327 327 326 327 327 325 324 324 324 325 326 326 327 326 326 326 325 324 323 321 316 314 311 310 308 308 308 308 307 307 307 308 309 308 307 307 306 306 305 303 303 304 305 305 304 303 303 302 302
297 299 307 308 312 313 314 314 313 313 314 315 317 317 318 319 321 322 321 322 321 322 320 321 320 323 324 323 323 323 321 325 326 326 326 327 327 328 328 327 327 328 327 325 324 324 323 324 325 325 325 324 324 326 325 323 321 319 315 314 312 310 308 308 307 308 308 299 304 307 308 308 307 306 306 306 304 303 303 303 303 304 304 303 303 303 303
303 306 306 308 310 311 311 313 315 314 314 316 318 319 318 318 317 317 319 322 322 323 321 321 321 321 323 321 322 322 324 324 325 326 326 327 328 328 327 327 326 327 325 326 326 324 324 325 325 325 325 324 322 323 323 322 323 318 315 313 312 310 308 307 307 307 306 305 306 306 307 308 308 308 307 306 305 304 306 306 306 305 305 304 304 306 306
293 295 301 306 297 297 305 310 314 316 317 316 316 317 316 316 317 317 316 317 321 323 323 321 321 320 321 324 325 322 324 324 325 326 326 326 326 326 327 326 327 327 326 326 326 325 324 325 324 324 324 324 323 323 321 319 318 315 312 310 310 308 307 306 306 306 305 306 306 305 305 305 307 305 291 294 303 305 304 299 296 293 298 309 309 307 306
294 303 307 309 308 309 310 312 314 315 316 316 315 315 316 317 319 320 319 317 318 319 322 324 323 323 323 324 325 324 324 325 326 326 326 326 325 325 325 325 326 325 325 325 326 325 325 323 323 323 323 322 321 321 320 317 315 313 311 310 309 308 307 306 304 306 305 305 305 305 305 305 307 305 304 300 290 288 295 296 292 291 290 289 289 290 304
307 309 309 311 308 307 311 313 314 314 317 315 315 316 316 317 317 318 319 320 318 318 320 322 324 324 325 325 326 324 324 324 325 324 325 326 327 325 325 325 325 324 324 324 324 323 325 325 323 322 322 322 321 320 318 316 316 313 312 310 309 308 307 307 304 306 306 306 306 306 306 307 307 305 304 301 299 292 289 290 290 289 289 289 289 290 290
306 311 311 313 313 314 314 314 314 316 316 316 315 315 317 317 317 319 318 318 320 320 319 320 322 324 324 324 324 323 322 322 322 323 321 320 322 324 323 323 324 323 324 325 325 325 324 324 324 322 321 320 320 318 317 317 316 315 314 312 311 310 309 306 305 304 305 306 307 307 307 306 306 306 305 304 301 300 299 290 289 289 290 290 290 290 290
311 312 313 314 313 313 313 312 313 315 317 318 317 317 316 315 317 317 318 319 319 320 320 320 320 322 323 322 322 321 320 319 315 317 321 321 321 322 322 322 323 323 324 325 325 325 324 323 323 323 320 320 320 320 320 318 318 318 317 314 313 312 309 307 306 306 306 307 306 306 307 306 307 306 304 304 303 300 299 297 296 293 291 290 289 289 289
312 313 312 311 311 311 313 311 311 315 316 318 318 317 318 319 316 317 319 319 320 320 320 320 321 321 319 319 317 319 317 316 318 320 320 319 319 320 322 323 323 323 322 323 323 320 318 322 321 321 320 321 322 320 319 321 320 318 317 316 317 303 295 300 308 306 307 306 306 306 307 307 306 306 305 304 303 301 300 298 298 297 298 297 293 293 294
312 312 313 309 307 307 312 314 315 316 316 316 317 316 316 317 317 317 317 318 318 319 320 321 320 320 319 320 320 318 318 317 317 318 318 318 320 321 322 322 322 321 322 321 321 319 318 320 320 319 319 320 321 321 320 319 318 317 317 316 317 313 309 306 308 308 307 308 309 307 307 307 307 307 306 305 304 303 302 300 299 299 297 298 297 291 290
312 313 314 315 315 314 315 315 315 315 316 316 317 316 316 316 315 316 316 316 317 318 318 319 318 319 318 318 319 317 317 316 316 316 317 318 318 319 320 320 320 319 318 318 320 319 318 317 318 319 319 321 321 320 319 318 317 316 316 316 314 311 309 308 309 308 309 309 308 308 302 304 308 308 306 305 303 305 301 301 299 300 300 300 297 295 293
312 312 313 314 314 314 313 313 314 314 315 316 315 315 316 315 314 315 315 316 316 316 317 318 318 317 317 317 316 317 316 316 316 317 317 317 318 319 319 319 318 317 315 314 315 319 318 315 315 316 318 319 319 319 318 317 316 315 315 316 315 311 310 310 309 309 308 308 308 301 304 305 306 305 304 305 304 302 302 303 300 297 297 297 293 294 294
312 312 313 314 314 313 313 313 314 315 316 315 316 315 314 316 316 315 315 316 316 316 317 317 316 316 316 316 317 318 317 317 317 317 317 317 318 318 318 318 316 312 313 314 314 314 315 317 317 317 318 319 319 319 318 317 316 316 315 315 315 302 297 297 301 310 309 307 305 306 305 305 305 304 302 303 303 304 303 300 298 298 299 299 297 295 295
311 310 309 310 311 312 312 313 313 313 314 315 314 314 314 314 313 314 315 315 316 316 316 317 315 315 315 316 317 317 317 317 316 316 316 317 318 319 318 319 318 312 317 315 314 314 314 315 317 317 317 319 318 318 318 316 316 315 315 307 312 309 300 296 305 306 305 303 306 304 302 305 306 305 303 302 304 303 303 302 300 300 300 299 298 297 297
308 308 307 307 308 310 311 311 311 311 312 313 314 316 316 316 315 315 315 315 314 315 316 316 316 316 317 317 317 316 316 316 316 315 316 316 316 317 317 318 319 319 317 316 315 314 313 312 312 316 318 317 316 316 316 316 315 313 314 313 313 309 300 300 302 306 305 305 304 304 305 302 305 304 303 303 304 302 303 302 301 300 300 300 299 298 297
308 305 306 308 307 306 308 308 311 311 313 314 315 315 315 315 315 315 315 314 316 315 315 315 316 316 315 315 315 315 315 314 313 313 314 314 315 315 316 316 317 317 318 317 316 314 313 313 312 313 314 316 316 315 315 315 315 313 313 312 311 308 305 305 302 306 306 304 305 305 304 304 304 305 303 303 304 302 300 302 299 299 300 300 300 299 296
311 311 311 311 312 312 312 311 311 311 312 313 314 315 316 316 316 316 314 316 315 315 316 315 314 314 314 314 314 315 314 314 314 313 312 312 314 314 315 315 315 315 315 316 317 316 315 314 312 311 310 311 313 314 314 315 314 313 313 312 308 306 305 303 304 305 304 304 304 303 302 302 306 300 303 304 303 303 301 299 299 299 300 300 299 299 297
309 308 309 309 310 311 311 312 313 313 314 314 314 314 314 315 316 316 315 316 317 315 315 314 313 312 312 312 313 313 313 314 313 313 314 312 314 315 315 314 314 313 313 313 315 316 316 314 297 298 311 310 310 310 311 311 311 308 307 306 303 303 302 301 302 302 301 302 301 300 302 299 299 301 302 304 303 303 301 300 300 299 299 299 299 298 297
309 309 309 309 309 310 310 310 311 313 314 314 314 313 312 313 314 315 315 315 315 315 314 314 313 312 312 312 311 312 313 313 313 313 313 315 314 314 314 313 313 312 311 311 312 315 313 311 296 293 306 309 309 310 308 296 309 305 304 304 304 303 301 302 301 301 301 301 300 301 298 299 302 303 301 303 303 303 302 302 298 299 300 298 298 298 296
307 308 308 308 308 308 308 309 309 311 310 310 311 310 310 312 312 312 312 312 313 314 313 313 312 312 312 311 311 310 311 312 313 313 312 312 313 312 311 311 310 311 310 311 313 314 311 303 292 303 314 312 311 309 301 291 296 303 303 301 300 300 300 300 299 298 299 301 298 301 301 302 303 303 303 302 303 302 301 301 299 299 299 298 298 297 296
305 306 307 307 307 308 308 309 309 309 309 308 309 310 310 310 311 312 312 311 312 312 312 311 311 311 310 309 309 310 310 311 312 312 312 311 311 311 308 308 308 308 310 313 313 309 306 305 311 312 311 310 308 307 297 291 296 306 304 303 302 301 299 299 299 298 299 300 299 300 301 301 302 301 301 301 302 301 297 299 298 296 298 298 298 298 298
304 304 304 304 304 305 306 306 307 307 308 309 308 308 310 309 310 310 310 310 311 309 311 311 310 308 309 308 308 309 310 310 311 311 311 310 309 309 308 309 309 308 307 300 308 308 303 297 306 311 309 308 307 305 301 300 298 304 303 303 302 301 301 300 299 299 298 299 298 295 298 298 298 299 298 298 300 298 297 296 296 296 297 297 298 297 296
304 304 304 304 304 305 305 305 305 306 307 307 307 308 308 308 308 308 308 308 309 310 311 311 310 308 308 308 309 309 309 309 309 310 311 310 309 307 306 305 307 309 309 310 309 305 301 302 309 309 308 307 306 299 303 296 303 305 304 302 301 300 299 300 299 299 298 298 297 299 299 298 297 297 296 298 298 297 297 296 296 297 298 298 298 297 296
304 304 303 303 304 304 304 305 305 305 306 307 305 306 308 308 308 308 308 308 308 308 308 309 300 308 310 309 309 309 309 309 309 310 310 309 309 308 306 306 308 305 296 297 299 302 307 309 306 302 308 306 302 294 295 302 306 305 304 303 303 301 300 300 301 300 299 298 298 299 298 297 296 296 295 296 296 296 296 296 296 296 297 297 296 296 296
304 304 303 303 304 304 304 304 305 305 305 306 307 307 307 308 308 308 308 308 307 307 307 308 306 303 307 308 307 307 308 309 309 309 309 309 309 309 308 309 308 304 291 301 305 308 307 307 306 306 298 300 299 290 294 304 304 303 302 301 299 301 300 300 299 298 299 299 299 299 298 297 297 296 295 296 296 296 295 295 295 295 295 295 296 296 296
304 303 303 303 303 304 304 304 303 304 304 305 306 307 308 307 307 307 306 306 307 306 307 307 307 308 307 308 307 307 307 308 307 308 307 306 307 309 310 309 306 300 291 302 306 308 306 305 304 296 288 290 289 290 303 304 304 302 301 300 299 299 299 300 300 300 300 299 299 299 299 297 297 297 296 295 294 295 295 296 297 297 297 298 299 299 299
304 304 303 303 303 303 303 303 303 304 305 305 306 306 307 306 307 306 306 306 305 305 305 305 306 306 307 307 306 306 307 308 308 307 305 303 302 304 305 298 304 302 301 296 307 306 306 303 295 289 290 289 290 289 305 304 305 303 303 302 303 302 301 300 300 299 299 298 297 296 295 295 296 295 296 295 295 295 296 297 297 298 298 299 299 300 300
305 304 304 298 303 304 304 304 305 305 305 304 306 304 305 305 305 306 306 306 306 306 307 306 305 305 306 307 306 307 307 307 308 308 307 306 306 306 306 300 304 300 293 290 306 305 300 287 287 288 288 289 289 296 304 303 303 304 304 303 302 299 299 298 298 298 299 299 298 299 298 298 298 298 298 298 298 298 298 296 297 300 300 300 300 299 300
304 304 304 304 304 305 305 304 304 304 303 303 303 303 304 305 305 306 306 306 306 306 306 306 306 306 307 307 306 305 304 305 305 307 307 305 303 301 298 295 292 291 296 304 303 303 298 295 290 288 289 289 288 305 304 304 303 303 302 302 300 301 300 301 300 301 301 300 299 298 296 299 301 301 301 299 301 301 301 300 300 300 300 300 300 298 299
303 303 303 302 304 304 304 303 302 302 301 301 302 303 304 306 306 306 306 306 305 305 306 306 305 306 307 307 306 307 307 306 303 305 308 307 305 304 305 306 301 291 292 291 291 290 287 289 288 288 288 289 295 305 304 304 303 303 303 303 302 303 303 303 302 302 302 301 300 301 301 302 302 302 302 301 302 302 302 301 301 302 303 302 301 301 301
304 303 303 304 304 303 302 302 302 300 302 303 301 302 305 305 306 305 305 306 305 305 305 305 305 306 306 304 305 307 307 306 307 305 307 307 306 305 304 298 290 291 299 300 300 297 289 287 288 289 287 287 303 305 304 304 303 301 303 302 302 302 302 302 302 302 302 302 301 300 301 300 301 302 301 301 301 302 300 301 302 301 301 302 300 300 301
303 304 304 304 303 302 302 302 301 303 303 303 303 304 305 304 304 304 304 306 306 305 305 305 305 306 305 305 306 306 306 306 307 307 307 306 305 304 303 303 304 297 295 301 300 296 288 286 288 289 293 301 304 303 303 302 303 302 302 302 301 303 300 298 296 296 300 301 301 300 301 300 302 300 301 300 301 301 301 300 297 293 291 295 298 298 297
302 302 304 303 303 303 304 304 304 303 303 303 304 304 303 303 302 301 304 304 305 303 304 304 305 305 305 304 305 306 307 307 306 302 306 305 305 300 299 301 303 299 300 299 300 299 299 301 302 298 298 301 303 302 302 302 302 303 299 301 301 301 301 300 300 301 302 301 301 301 301 301 302 302 302 302 300 300 300 301 299 299 299 299 297 297 297
303 303 304 303 303 303 303 304 304 303 304 304 303 302 302 302 302 303 304 298 304 305 304 303 303 304 305 305 304 305 306 306 304 305 302 303 304 304 302 296 302 300 302 302 302 302 302 302 297 295 296 302 302 302 297 297 300 301 302 299 299 302 300 301 299 300 301 301 301 301 300 301 302 301 301 302 302 300 299 299 299 298 297 297 297 295 296
Wind_Speed
12 14 15 17 18 16 17 19 20 20 17 16 16 11 11 13 8 8 9 8 8 7 5 4 7 10 11 12 13 13 14 14 14 16 17 17 18 18 18 18 17 18 19 19 20 19 17 17 18 15 16 16 13 16 14 15 15 16 15 14 15 16 15 15 15 15 15 14 11 11 12 11 12 11 10 9 10 10 10 10 9 10 10 10 10 10 11
12 13 15 19 19 17 17 19 22 19 18 19 18 14 11 11 10 7 6 7 10 9 5 3 5 1 7 12 11 11 13 14 16 17 17 18 18 19 19 19 19 18 19 19 19 19 18 20 21 19 16 17 15 16 14 16 16 15 16 16 16 16 16 15 15 15 16 14 14 13 13 12 12 12 10 10 10 10 11 11 10 10 10 10 10 11 11
11 11 13 18 20 17 17 18 19 20 19 20 20 15 11 2 2 5 2 4 7 7 5 4 4 1 4 8 11 13 14 15 16 17 17 17 18 18 18 18 19 19 19 19 20 19 20 20 21 18 16 15 14 15 15 17 16 16 17 16 15 16 16 16 16 16 15 15 13 13 12 11 11 12 11 9 9 10 10 10 11 10 10 11 10 11 11
6 7 8 14 17 18 16 18 20 20 21 19 18 14 12 9 7 6 4 4 7 5 5 7 4 3 6 10 11 12 12 15 15 16 17 17 17 18 18 18 19 19 20 19 20 20 20 20 18 14 15 16 15 15 16 16 16 15 15 16 16 16 16 16 17 17 15 16 13 13 12 12 12 11 10 10 10 10 10 11 10 10 10 11 11 11 10
6 11 12 14 15 13 14 16 20 21 18 16 17 16 13 11 8 5 3 6 5 5 4 5 6 4 5 8 10 11 13 14 14 15 16 16 17 18 18 19 18 19 19 20 19 19 18 19 17 17 18 16 16 16 17 16 15 14 15 15 16 17 16 17 17 16 14 13 13 12 12 12 11 10 10 11 10 11 12 10 10 11 11 11 11 11 11
7 13 13 14 13 13 12 12 15 17 18 18 18 16 15 12 9 6 3 6 3 2 4 5 5 3 3 6 7 7 9 11 13 14 15 16 16 16 16 17 18 19 16 13 14 17 17 17 16 17 16 15 12 13 14 13 13 12 13 14 16 16 16 17 16 15 14 13 13 12 12 12 11 11 10 11 11 11 11 11 10 10 10 11 11 11 11
8 11 11 11 11 10 6 14 15 15 15 16 20 16 15 12 11 8 6 4 1 4 4 4 3 4 2 3 6 9 9 11 11 13 14 15 16 17 18 17 17 18 18 17 18 17 18 16 15 15 15 11 10 13 14 14 11 13 15 16 15 15 15 15 15 15 14 13 14 13 12 12 11 11 11 11 11 11 11 11 10 10 10 11 10 11 11
6 9 9 10 8 9 2 9 15 14 14 15 17 17 14 14 11 9 10 7 4 2 2 3 3 2 3 6 5 7 8 11 12 13 13 14 15 16 16 18 18 17 18 17 17 17 14 12 15 16 16 14 13 14 15 16 15 15 15 14 13 12 13 13 14 14 14 13 13 13 12 12 12 12 12 11 12 11 11 11 9 9 9 9 10 11 11
9 9 10 6 6 8 6 5 13 14 13 14 14 8 11 11 9 5 3 4 4 1 1 2 4 5 4 7 7 7 9 10 11 12 12 14 15 15 16 15 16 17 16 15 14 15 15 15 15 14 15 14 13 13 14 14 14 15 14 13 11 11 12 12 12 13 14 14 13 13 13 12 12 13 13 13 12 11 11 11 10 10 10 10 10 10 11
8 10 9 6 5 5 7 9 8 8 9 10 11 6 6 7 5 6 6 4 1 1 1 3 5 5 6 7 6 7 9 10 12 12 15 14 15 16 16 16 15 17 17 17 14 16 17 16 15 13 15 15 14 14 13 12 14 13 13 11 11 11 11 12 12 12 13 14 14 13 12 13 13 12 12 10 11 10 11 11 11 10 10 10 10 10 11
7 8 7 6 6 3 8 8 11 9 5 5 4 5 7 7 8 6 7 7 3 2 2 6 5 4 4 7 5 6 8 9 11 14 14 16 16 16 17 17 18 18 17 17 17 16 16 15 12 14 15 16 14 13 12 12 13 13 14 13 12 11 11 11 11 12 12 13 14 14 13 13 13 13 12 11 10 10 10 10 9 10 10 10 10 10 10
8 6 8 7 2 3 6 8 8 9 9 6 6 9 6 7 5 5 6 6 4 4 4 6 7 3 2 8 10 9 9 9 12 13 14 15 16 16 16 17 17 18 19 18 17 16 16 15 15 16 16 16 15 13 13 12 11 12 13 14 12 11 11 11 11 11 11 11 11 12 12 12 12 10 9 10 12 11 10 9 9 9 10 9 10 9 8
9 9 6 6 5 6 6 4 7 10 9 7 6 7 6 1 5 4 6 6 5 5 6 5 3 2 5 6 11 12 11 12 12 13 13 15 16 17 17 16 16 16 16 16 16 17 16 17 16 16 15 15 15 14 13 12 12 11 10 10 11 12 12 12 12 11 10 10 11 11 10 11 10 8 9 10 11 11 7 5 7 7 8 6 7 7 6
8 5 6 5 4 3 3 4 7 11 10 7 6 5 3 4 6 6 6 8 7 7 6 7 5 5 7 9 10 12 12 12 12 14 15 15 14 15 16 15 15 15 15 15 16 15 15 16 16 16 15 14 14 13 13 13 13 12 12 9 8 8 8 11 10 11 10 10 10 9 9 11 12 11 9 7 6 8 9 9 10 9 9 8 8 8 8
4 4 7 7 6 2 3 8 8 3 4 2 4 4 4 2 6 7 8 7 8 8 8 9 8 10 11 12 12 13 13 12 13 14 15 16 16 17 18 17 15 14 15 16 15 15 15 16 15 15 16 15 14 13 13 14 13 12 12 12 11 10 7 7 8 10 10 11 10 8 9 12 12 11 9 9 8 9 9 10 10 11 11 10 9 9 8
1 7 3 3 3 4 1 6 5 6 8 6 5 3 6 5 5 7 7 7 7 8 8 8 9 9 13 13 13 12 12 12 12 13 13 14 16 14 15 15 15 15 14 15 15 15 15 15 14 14 15 14 14 13 14 13 12 12 13 14 14 12 11 11 11 11 11 10 9 8 10 10 13 13 12 11 11 10 10 9 10 10 9 9 9 9 9
4 4 4 5 5 4 8 9 10 8 8 8 9 6 6 6 6 6 6 7 5 7 7 8 8 8 8 12 11 11 11 11 11 12 13 14 15 13 14 15 14 13 14 15 14 14 14 15 14 15 14 14 14 13 13 14 14 13 14 14 13 12 12 12 12 11 11 10 9 10 11 11 11 10 11 10 9 10 10 10 10 10 9 9 9 9 9
10 9 7 7 7 9 10 10 9 10 8 10 8 10 8 7 8 7 6 8 7 6 4 6 7 7 7 9 10 10 10 10 10 10 11 12 12 12 13 15 14 13 14 14 15 14 13 13 13 13 13 14 15 13 13 13 13 12 13 13 11 9 10 10 10 11 11 10 9 9 10 9 9 9 10 10 9 9 10 10 10 10 10 10 10 10 10
1 5 3 6 12 9 11 11 11 11 9 10 9 9 10 10 9 9 9 8 7 5 8 9 8 6 7 9 9 10 10 10 8 9 11 11 12 11 12 12 12 12 15 13 14 14 13 12 11 11 11 12 14 13 13 13 13 13 13 14 12 10 10 10 10 10 12 10 9 10 10 9 9 9 9 9 10 10 10 10 10 10 10 10 10 10 10
4 8 7 10 8 10 9 8 8 10 11 12 11 10 10 10 9 8 7 7 7 7 8 9 10 9 9 8 8 9 9 8 10 9 10 10 10 10 11 11 10 12 14 14 14 15 13 12 11 12 12 12 13 12 13 13 12 13 13 13 13 12 12 11 10 10 9 10 11 9 10 10 9 9 9 10 10 10 10 10 10 10 10 10 10 10 10
6 8 1 4 13 11 12 11 11 10 8 9 9 10 11 11 12 11 10 10 9 8 8 7 7 8 9 9 9 8 7 9 11 11 9 8 9 10 11 11 10 11 11 13 16 14 14 12 12 12 12 12 11 13 13 14 14 14 12 14 13 12 10 9 8 8 8 9 9 9 9 9 8 9 10 10 8 8 9 8 9 10 10 8 9 9 9
3 2 5 8 2 6 7 9 9 8 9 9 10 10 11 8 8 10 11 11 10 10 9 8 7 8 7 7 6 9 8 8 8 10 9 8 9 9 9 9 9 8 9 11 13 14 13 12 12 12 13 12 11 13 13 12 12 11 12 12 12 11 10 9 9 9 10 10 9 10 10 9 9 4 12 10 3 6 8 6 6 8 5 3 5 8 8
1 1 5 5 3 6 4 6 7 9 8 8 10 10 10 10 9 8 9 10 10 11 11 10 9 8 7 6 6 7 8 9 7 7 9 9 8 9 9 9 10 10 10 11 11 11 12 12 12 12 12 11 11 12 12 11 12 12 13 11 10 10 11 10 10 11 10 9 9 9 9 10 10 8 7 7 12 13 3 12 10 10 11 11 14 13 6
2 3 4 2 4 2 3 6 7 7 6 8 9 10 9 9 10 10 10 10 10 9 9 10 10 9 8 8 7 9 8 7 6 6 5 7 8 8 8 8 9 10 10 10 12 12 10 11 12 12 11 12 12 12 11 11 11 12 12 11 10 10 10 10 10 9 10 10 10 10 11 11 11 10 10 7 4 11 12 10 11 11 10 11 13 12 12
3 6 3 2 3 5 2 7 4 7 7 7 8 9 10 9 10 10 10 10 10 9 9 9 10 9 9 9 8 7 7 7 5 5 5 4 3 7 8 8 8 6 6 7 8 10 10 10 11 13 12 12 11 12 12 12 12 12 13 11 11 11 10 11 10 10 10 10 10 10 11 11 11 10 11 10 8 5 6 10 10 10 9 10 11 11 13
4 6 7 6 4 1 2 3 7 6 8 7 8 9 10 10 8 10 11 10 9 9 9 9 10 10 9 9 8 8 7 7 8 1 4 3 3 4 4 7 9 8 8 8 7 8 10 11 10 11 11 11 12 12 12 12 12 13 13 12 13 11 11 12 12 11 10 11 10 10 10 11 11 10 10 9 9 8 8 5 4 7 10 9 11 14 14
1 4 6 5 1 1 8 6 4 7 6 7 7 7 7 7 6 8 9 9 9 9 9 9 9 9 9 10 11 9 8 6 4 2 5 4 3 3 4 4 5 5 7 8 7 5 3 7 10 10 9 9 10 11 11 12 12 12 12 11 11 12 16 13 12 11 10 10 10 10 10 10 10 10 9 9 10 11 11 9 8 6 6 3 3 7 9
2 1 2 1 3 5 7 5 4 3 5 4 5 5 6 5 6 7 8 9 8 8 8 8 7 6 7 7 8 8 6 4 4 3 4 5 4 2 3 3 5 6 4 6 8 7 6 3 7 9 8 9 10 10 11 11 11 11 11 10 10 9 12 12 10 9 9 9 7 8 8 8 8 7 7 8 9 9 9 9 9 8 7 7 6 7 15
1 1 1 1 1 3 4 1 2 2 3 3 3 3 2 4 6 6 7 6 7 7 7 7 6 6 6 6 6 6 5 4 4 4 4 4 4 4 4 4 5 4 4 3 5 7 6 5 5 7 7 8 8 8 9 10 9 10 10 10 8 8 9 9 9 9 8 7 8 8 8 8 9 7 7 8 9 9 9 10 8 7 6 8 8 5 6
0 1 2 1 1 1 1 2 1 2 2 2 2 1 3 3 3 5 5 5 5 6 6 6 6 6 5 6 6 5 4 4 3 4 4 4 4 4 5 5 6 5 5 5 4 4 6 7 7 7 7 8 9 9 10 9 8 9 9 10 9 9 9 9 9 9 9 9 9 6 7 7 7 8 9 8 7 8 7 8 8 8 9 9 9 9 8
2 1 2 2 3 3 4 1 0 0 1 2 1 1 2 1 3 3 4 4 4 5 5 5 5 4 5 6 5 5 5 4 4 4 4 4 5 5 5 5 4 3 4 5 6 5 3 5 7 7 7 6 7 8 8 8 7 8 8 8 8 7 13 12 9 8 9 9 8 7 7 7 7 8 8 8 8 7 7 8 7 9 9 10 9 8 8
5 3 3 4 7 7 5 3 3 3 2 1 3 2 1 1 2 3 2 3 4 4 4 5 5 5 4 4 3 3 4 4 4 4 4 4 4 5 5 4 4 5 5 6 6 6 3 1 5 8 8 7 7 6 6 7 7 7 7 7 7 6 9 14 9 6 7 8 8 7 7 7 8 9 9 8 9 10 10 10 9 8 8 9 9 8 9
7 6 6 2 7 7 6 4 4 4 3 3 1 1 1 1 1 3 2 2 2 2 3 4 4 3 3 2 2 3 3 4 5 4 4 5 5 4 3 3 3 5 6 5 6 5 4 3 4 3 7 8 7 6 5 6 6 5 5 6 6 7 8 8 7 8 8 8 8 8 8 8 8 8 8 7 8 8 9 8 7 8 7 7 7 8 9
4 2 2 4 2 7 10 3 3 2 3 2 2 2 2 1 1 3 3 2 2 2 3 4 2 2 1 2 2 2 3 3 4 5 5 4 5 4 4 4 4 4 5 7 6 5 4 3 3 4 4 4 6 6 7 8 7 6 7 6 7 6 6 7 6 9 9 9 8 7 6 8 8 8 7 6 7 7 7 7 8 8 7 7 7 7 9
4 5 5 4 4 1 4 6 3 1 3 4 3 3 2 0 0 4 5 1 2 2 1 1 1 2 3 2 1 2 0 2 2 6 5 4 4 4 4 4 5 4 4 4 5 6 6 6 5 5 5 4 3 5 5 5 5 6 6 7 7 7 8 9 9 9 8 8 7 6 6 7 4 4 6 7 8 7 8 8 7 7 7 7 6 6 9
4 2 2 3 3 3 3 4 4 2 1 1 2 2 2 3 2 2 3 1 2 2 2 1 1 0 0 1 1 2 1 2 3 3 6 4 4 4 4 4 4 5 5 6 5 6 4 6 9 9 6 5 5 3 3 4 3 5 6 6 7 7 7 7 7 6 7 7 6 6 6 5 5 6 7 7 7 6 7 7 7 7 6 6 6 6 6
3 3 3 2 2 3 3 0 2 4 2 3 2 2 2 3 2 1 1 1 1 2 2 1 2 2 1 0 2 1 2 1 2 3 3 3 4 4 4 3 3 3 4 5 4 3 7 8 8 7 6 6 5 6 6 5 4 5 4 5 6 6 7 6 6 6 6 6 7 7 8 7 7 8 8 7 6 6 6 7 7 7 7 6 6 6 6
4 4 3 4 3 1 1 2 4 2 3 2 2 2 1 2 1 2 2 2 2 1 1 2 0 0 1 2 2 2 2 2 2 3 4 4 3 4 4 3 3 3 2 4 6 5 7 7 7 5 4 5 5 6 7 9 9 6 5 5 6 6 7 6 6 6 6 5 5 6 6 7 7 7 6 5 6 7 7 7 7 6 6 6 6 6 6
3 3 3 4 5 5 6 4 3 3 5 5 4 3 3 6 4 3 3 2 1 2 3 1 1 3 3 5 4 2 2 1 2 4 4 4 4 3 5 6 7 7 6 4 5 7 8 7 5 5 4 5 7 6 7 7 4 5 6 6 6 6 6 7 6 6 6 6 5 6 6 6 6 6 5 6 7 6 5 6 6 6 5 5 5 5 5
2 3 4 4 4 4 4 3 4 4 4 4 4 4 2 4 5 5 3 2 2 1 5 4 4 5 5 4 4 3 3 3 3 4 4 4 4 3 3 4 6 6 6 6 5 5 5 2 4 5 4 6 5 5 6 6 5 5 5 6 6 6 6 6 6 6 6 6 5 5 5 5 5 5 5 5 5 5 5 6 6 5 5 5 5 5 5
2 3 3 5 3 2 2 3 3 3 3 2 3 4 3 5 4 4 4 4 2 3 4 6 5 4 6 5 6 5 2 3 3 4 5 6 6 6 5 4 3 3 2 3 6 7 5 6 5 6 5 5 6 7 8 7 6 6 6 6 6 6 6 6 6 6 6 6 6 5 5 5 5 5 5 4 5 5 5 5 6 6 5 5 5 5 4
2 3 3 4 4 2 2 2 3 2 1 1 1 1 2 3 5 5 3 2 4 4 6 4 8 5 5 3 4 4 3 3 4 4 6 4 1 3 4 5 5 6 8 9 7 6 4 4 4 4 6 6 7 7 6 7 6 6 6 6 7 7 7 6 6 6 6 6 6 5 5 5 5 5 5 5 5 5 5 5 5 5 4 4 4 4 4
3 3 2 1 1 2 2 2 0 1 1 0 0 0 1 1 3 3 3 2 1 0 4 3 3 2 2 1 2 4 4 4 4 4 3 4 5 6 4 5 4 7 5 6 7 6 5 5 5 4 7 6 7 6 3 5 6 6 6 6 6 6 6 6 6 6 6 6 6 6 6 6 6 6 6 6 5 5 5 5 5 4 4 4 3 4 5
2 3 2 1 1 2 3 2 2 3 2 1 2 1 0 1 0 1 1 2 1 1 2 1 2 1 3 3 4 4 3 4 5 4 3 2 1 2 2 2 4 5 6 4 6 4 5 5 5 9 11 12 11 10 7 7 7 6 6 6 6 6 6 5 6 6 6 6 6 6 6 6 6 6 6 6 5 5 5 5 5 5 5 6 6 6 6
3 2 2 2 2 2 2 2 1 1 2 2 2 2 1 1 1 1 1 0 1 1 0 1 1 1 2 3 3 3 3 3 3 3 4 4 4 3 3 5 6 6 4 5 3 5 5 6 8 11 11 12 13 11 5 7 6 7 7 7 7 7 7 6 6 6 6 6 6 6 5 5 5 6 6 6 6 6 5 5 6 6 6 6 6 7 7
4 5 2 2 4 1 2 3 1 1 1 1 3 4 0 1 2 2 1 1 2 1 1 2 3 2 3 3 4 4 4 3 2 1 4 5 1 4 5 5 6 2 3 7 3 6 8 10 11 9 12 10 10 7 4 7 6 6 6 6 6 6 5 5 6 6 6 6 6 6 7 7 6 6 6 6 6 7 7 7 7 7 7 7 7 7 7
4 4 4 3 1 2 3 1 1 2 1 2 3 2 2 1 2 2 3 2 2 2 2 2 2 3 3 4 4 4 3 3 4 3 4 6 8 8 6 7 10 9 5 2 8 7 8 8 7 9 10 10 11 5 6 5 6 6 6 7 7 6 6 6 7 7 7 7 7 8 8 8 8 8 8 8 7 7 8 7 7 7 7 6 6 6 6
2 3 3 2 3 2 3 3 3 4 3 3 2 0 1 2 2 2 4 3 2 2 2 3 3 3 3 3 0 1 1 1 4 4 5 6 6 8 8 6 6 9 12 12 13 10 11 10 9 10 8 4 6 3 7 6 7 6 7 7 7 7 7 7 7 7 7 8 8 8 8 8 7 8 8 7 7 7 7 7 6 6 6 7 7 6 6
3 4 4 3 4 4 3 3 3 2 1 1 4 1 2 1 1 2 2 2 2 2 2 3 3 4 3 3 1 1 2 5 1 4 5 6 7 6 7 7 4 3 7 8 8 6 5 7 8 6 5 5 4 6 5 6 6 6 6 7 6 7 6 6 6 6 7 8 8 7 7 7 6 7 7 7 6 6 6 6 5 5 7 7 6 6 6
3 4 4 4 4 3 3 4 2 1 4 2 1 1 2 3 3 1 2 2 3 2 2 3 3 3 3 3 3 2 1 1 2 6 5 7 9 8 8 7 6 6 8 8 8 6 3 2 4 3 4 5 4 6 6 6 7 6 6 6 6 6 5 6 6 5 7 7 6 6 6 5 5 4 4 5 5 5 5 5 7 10 14 9 6 6 6
3 4 4 4 4 4 3 1 2 4 3 1 2 1 3 3 2 0 2 1 1 2 2 4 3 3 3 4 3 2 3 3 3 4 5 6 7 8 8 8 8 9 10 9 8 7 6 6 5 6 4 3 7 6 7 6 7 7 7 6 6 6 6 5 6 6 6 6 7 6 5 5 5 5 5 5 6 6 6 6 6 5 4 4 4 4 5
3 2 3 3 4 4 3 3 4 4 2 2 3 3 2 1 2 3 3 1 3 3 3 3 3 3 3 3 3 4 4 4 5 5 6 7 7 7 8 8 9 9 9 8 8 8 8 6 6 4 4 6 7 6 3 2 7 6 6 6 6 6 6 3 5 6 4 6 7 6 6 6 6 6 7 7 7 7 7 6 6 4 6 4 5 5 5
Wind_Direction
196 181 181 186 192 197 189 193 196 196 201 199 199 197 190 143 205 119 98 86 107 99 96 119 154 177 179 171 171 159 158 160 162 167 173 169 163 163 162 161 158 161 166 166 165 162 160 156 160 161 165 166 160 165 166 159 145 156 165 162 162 164 162 157 154 152 152 157 145 144 148 154 151 149 155 158 152 151 149 154 156 156 153 153 155 151 153
240 200 187 175 193 197 194 193 190 188 188 204 197 193 191 147 91 106 104 94 86 55 53 78 60 0 179 164 168 158 163 167 165 170 169 169 167 167 164 163 162 165 168 162 161 161 158 161 162 165 166 165 160 164 159 159 158 163 166 163 163 162 161 155 152 151 152 152 156 148 155 157 151 149 154 157 154 152 154 155 156 153 154 154 154 153 155
220 244 198 174 189 186 193 191 193 192 190 204 198 193 203 132 340 40 247 107 106 78 58 65 66 55 137 149 164 165 171 171 170 170 170 171 169 168 164 162 164 166 164 160 160 157 158 161 166 168 161 156 160 165 163 161 162 163 167 162 162 163 158 155 155 156 156 157 150 148 153 151 147 147 153 156 155 156 155 156 155 154 155 157 156 158 155
210 206 183 176 184 190 194 190 195 192 191 198 194 201 201 215 198 208 249 203 113 78 64 92 96 146 163 165 165 166 171 170 171 172 170 168 165 165 164 164 165 162 162 161 160 158 159 162 167 161 161 159 162 171 165 163 165 162 162 163 160 161 157 157 159 159 158 157 143 147 152 151 150 151 156 160 160 160 159 157 156 156 159 157 158 157 156
179 202 196 179 187 181 198 198 193 192 190 194 199 210 206 215 216 201 228 72 71 33 35 60 94 136 153 166 172 167 173 167 174 173 170 165 164 166 164 162 158 162 162 162 158 156 157 162 166 166 166 163 169 170 165 165 165 167 161 161 160 160 161 162 163 160 151 143 142 148 151 149 149 151 160 169 168 171 170 162 158 161 162 159 158 160 159
184 191 175 167 183 191 200 186 190 195 190 191 200 207 203 202 213 230 71 96 102 56 38 33 71 147 155 155 163 171 168 163 171 166 169 168 167 158 155 160 156 161 158 149 154 155 156 162 166 164 167 169 168 161 162 155 162 157 158 164 163 160 161 162 161 152 144 144 146 148 149 149 149 157 167 176 172 173 170 170 166 164 162 159 160 162 161
180 178 168 176 190 192 169 170 184 189 183 186 216 211 202 202 205 228 242 179 12 55 357 35 47 74 160 119 152 158 164 160 165 162 166 164 157 155 151 161 160 158 157 157 158 159 163 162 164 165 166 166 170 156 161 150 153 152 164 165 160 159 159 159 158 151 147 144 145 147 147 150 156 166 174 175 175 174 174 177 171 166 161 162 162 163 162
174 171 182 175 191 109 159 178 177 180 183 191 214 224 213 206 208 211 233 245 265 15 19 62 78 109 98 111 137 152 160 163 167 162 160 159 152 161 160 156 158 157 159 158 162 159 155 150 164 167 167 170 173 159 159 153 160 166 164 157 149 147 144 147 150 151 148 145 146 148 153 159 164 171 179 177 174 175 176 177 173 164 162 164 164 166 164
178 178 177 145 88 141 135 161 184 175 183 188 204 213 217 209 214 230 255 245 233 269 353 72 112 115 155 140 147 170 164 162 161 152 153 162 156 155 155 155 154 155 155 160 153 145 152 158 162 165 158 165 169 164 165 158 164 166 162 156 146 143 142 147 150 150 147 146 149 155 160 163 173 179 182 178 178 179 178 179 172 166 167 164 166 167 164
190 174 169 138 170 165 180 177 172 180 181 191 200 231 239 196 181 192 215 232 213 274 38 105 111 124 170 151 143 157 151 152 150 145 146 157 159 151 147 151 150 148 150 153 146 150 154 161 164 150 155 165 169 166 167 161 164 161 164 150 147 145 147 150 151 151 153 154 155 160 161 170 176 184 185 177 181 176 182 180 173 169 165 165 168 167 168
183 187 162 168 160 85 124 147 161 170 158 189 143 187 222 173 180 173 202 228 228 239 156 127 142 182 179 137 151 148 148 138 143 141 147 149 155 158 153 151 151 149 149 146 147 150 155 162 154 146 157 161 164 169 165 168 170 171 175 161 154 152 149 149 148 152 162 164 159 161 166 177 182 184 180 179 177 179 183 180 170 169 165 165 166 163 160
194 171 180 160 134 122 118 136 158 157 166 135 180 190 184 86 159 170 203 202 164 169 178 134 127 198 169 137 150 164 151 144 141 145 145 144 147 151 150 150 150 147 142 141 152 157 160 154 145 162 165 167 163 164 172 176 175 175 175 172 160 155 153 152 152 158 164 161 159 160 170 182 188 176 166 178 178 181 180 175 170 166 168 161 157 152 147
175 189 100 80 91 65 65 95 141 157 153 186 199 204 105 150 123 192 180 157 152 162 168 187 149 85 54 120 135 145 146 145 137 139 143 140 144 145 152 150 147 152 154 152 158 166 162 160 164 166 167 165 164 169 171 172 175 171 165 153 147 148 151 158 160 159 157 159 157 163 168 181 178 160 176 176 175 182 167 140 101 81 77 95 123 133 149
179 153 140 120 98 51 318 131 138 137 156 184 192 53 96 168 173 151 141 129 151 147 86 80 105 112 136 132 127 144 154 144 141 137 139 143 140 138 136 133 147 150 153 158 163 165 158 160 163 163 164 162 160 160 171 177 174 171 158 124 103 93 113 141 148 148 151 148 152 153 155 166 168 172 177 146 114 96 107 111 123 137 137 145 154 163 167
159 113 130 132 122 110 349 128 111 153 219 84 359 80 64 73 120 126 120 136 134 108 94 77 81 119 129 133 142 150 148 145 141 141 143 138 143 142 143 149 150 153 157 159 162 163 158 158 164 164 165 165 167 166 174 171 162 157 143 133 121 116 118 132 139 147 152 151 152 155 159 171 165 171 150 144 147 144 137 149 157 163 165 170 172 168 168
174 144 129 90 52 75 316 227 125 92 68 121 143 86 98 92 107 115 129 129 132 122 108 84 86 110 130 138 145 137 137 139 139 140 141 139 138 145 153 152 151 160 158 161 160 157 154 157 162 165 163 166 164 168 168 163 154 147 145 146 146 152 160 159 155 148 148 152 151 145 142 142 163 164 167 163 160 166 169 171 174 177 178 177 178 176 177
8 60 86 97 112 49 66 80 91 83 74 69 65 73 78 81 82 105 118 112 102 123 96 99 99 97 112 118 122 130 138 140 140 142 145 145 140 144 150 151 154 160 155 153 153 153 157 162 160 167 169 167 165 173 168 165 163 161 161 153 149 152 162 161 155 153 146 148 153 155 156 157 159 160 160 160 162 167 173 178 177 179 180 183 187 184 185
84 88 119 135 95 76 87 87 87 91 84 95 101 96 89 74 82 85 85 97 106 95 120 106 93 99 109 126 125 124 136 140 138 141 143 141 142 146 154 152 164 162 151 153 152 152 158 164 165 166 171 172 170 175 173 176 171 158 163 152 142 143 149 149 149 144 142 148 154 155 154 160 160 158 157 164 170 170 175 184 184 184 186 186 191 189 188
243 91 19 74 110 112 89 89 90 84 76 83 91 83 76 78 79 79 81 92 98 101 98 112 122 130 120 116 128 137 138 138 134 144 149 145 147 149 156 153 165 154 149 155 160 156 161 164 167 168 164 174 174 173 166 167 169 163 161 155 148 144 139 142 143 146 146 152 155 159 160 160 162 161 162 172 178 177 180 186 189 190 190 187 191 192 192
110 88 77 99 93 80 73 80 83 83 83 77 73 75 79 80 74 79 89 102 93 83 84 103 127 136 124 116 120 131 144 146 149 151 146 146 149 152 152 151 173 155 155 156 159 159 162 164 167 169 168 169 177 176 169 168 163 160 156 156 153 153 148 150 150 151 151 144 153 161 166 167 169 171 175 183 183 185 187 187 188 190 193 191 192 197 195
58 102 173 75 86 80 77 72 63 59 58 76 82 83 86 81 83 81 71 59 67 66 75 78 88 105 117 133 134 120 128 146 144 140 149 151 151 151 153 158 180 161 162 163 159 157 159 165 166 171 167 152 144 164 173 175 173 165 157 155 155 145 138 136 137 142 144 150 162 162 164 173 177 182 187 189 183 185 194 192 191 193 195 188 194 200 200
65 350 11 352 102 92 71 46 50 69 86 70 74 85 81 74 68 71 74 74 66 58 46 64 75 76 79 87 105 124 126 118 127 133 140 143 150 150 147 159 175 148 162 166 162 156 157 165 164 166 165 168 171 175 170 162 156 151 143 147 149 145 142 144 146 149 154 162 165 163 166 168 179 114 37 52 52 181 184 197 144 60 69 184 180 200 197
129 94 348 70 82 67 38 61 69 57 53 83 82 66 65 79 80 84 84 80 72 63 58 52 65 70 72 66 73 89 96 101 109 128 147 149 157 153 150 165 163 162 178 177 167 164 156 157 167 167 163 166 171 172 171 162 151 145 148 150 154 155 155 161 158 160 157 155 161 166 171 173 180 155 151 79 46 29 73 129 100 92 73 54 48 42 31
37 68 137 128 77 9 28 61 72 77 73 79 69 81 90 79 77 74 70 74 80 77 68 62 58 67 67 64 69 79 86 93 102 114 131 146 149 139 153 170 168 173 176 175 171 167 163 164 161 163 168 170 170 171 170 163 156 152 155 156 160 161 164 161 154 153 159 163 168 172 177 183 184 176 174 149 85 45 37 73 90 88 82 69 62 56 47
341 344 345 11 148 166 161 93 66 81 69 75 74 62 49 62 70 66 72 68 65 73 73 68 61 57 67 71 74 80 83 84 94 97 117 113 113 157 164 167 170 173 159 166 174 164 166 177 172 159 163 168 169 171 173 170 167 164 165 164 162 161 158 152 156 158 167 171 175 173 180 183 186 180 182 184 166 130 59 47 66 76 74 75 78 69 61
337 331 333 344 336 86 181 132 77 53 65 72 84 84 75 51 38 66 66 66 67 64 67 67 65 54 54 66 74 79 83 74 44 81 141 108 113 145 169 168 169 176 175 168 173 176 168 169 172 169 163 166 170 173 174 170 172 174 175 168 163 162 160 158 163 168 173 175 177 176 181 184 190 181 183 186 171 160 156 150 93 60 57 58 91 88 73
332 343 336 293 273 32 64 66 17 31 51 61 68 77 75 81 74 72 74 72 69 66 69 71 75 80 77 67 59 60 79 102 151 201 117 135 154 159 160 166 167 168 171 174 172 175 145 158 164 165 163 166 170 161 174 181 179 177 182 182 182 145 149 163 172 171 174 177 180 182 183 186 193 198 172 170 176 183 184 172 164 167 186 129 62 87 99
299 91 4 70 44 14 323 36 351 26 48 50 46 59 65 66 67 67 70 73 71 71 65 57 59 72 89 102 104 95 96 96 82 108 131 139 128 118 126 135 160 165 178 169 160 140 156 151 163 154 159 166 177 169 171 179 177 180 180 175 173 145 149 159 170 171 174 173 168 183 184 182 186 182 154 164 190 183 169 168 171 170 174 177 145 70 88
292 32 75 166 126 209 278 324 213 110 70 49 41 50 61 86 73 65 61 60 62 65 67 68 68 55 57 62 60 77 82 88 101 101 93 99 129 140 126 139 137 135 132 140 148 147 144 137 149 159 162 164 163 166 172 172 175 177 180 178 168 155 152 160 166 170 170 162 180 187 181 182 187 153 155 175 194 187 167 173 174 165 137 107 98 97 91
217 13 272 242 240 288 269 249 137 137 141 104 69 63 53 44 70 67 65 68 65 66 65 68 56 51 41 59 52 48 58 75 101 114 119 130 134 136 142 136 134 132 128 121 133 163 141 141 157 182 175 167 163 164 171 169 173 174 176 181 174 160 166 169 170 166 167 178 187 162 162 165 176 163 177 183 162 144 123 108 112 124 148 161 158 158 166
315 355 310 288 251 219 227 185 35 136 169 179 56 55 84 15 84 91 77 71 66 69 60 56 55 55 58 51 54 59 64 75 83 104 116 126 136 144 145 151 158 151 156 145 128 133 167 170 157 162 153 164 160 168 172 162 174 173 178 183 189 141 145 151 179 174 177 183 174 166 168 176 172 173 171 163 141 141 140 150 173 188 196 162 163 167 159
264 229 270 264 236 216 207 197 212 197 176 140 209 208 106 153 109 104 109 87 72 65 70 60 48 51 53 61 62 89 92 87 100 103 117 130 129 133 147 160 133 132 131 121 127 129 119 85 120 132 148 167 164 177 155 156 172 175 182 181 164 98 137 144 181 164 167 175 163 171 169 186 187 181 174 172 171 174 172 167 183 190 185 165 171 166 154
251 233 206 285 309 255 222 195 226 185 187 206 218 24 49 56 93 104 99 107 123 87 66 62 53 46 62 74 97 95 102 108 108 118 114 115 113 115 121 127 137 120 110 114 121 122 125 97 63 70 132 134 145 162 170 172 165 175 178 174 175 129 125 151 162 181 172 173 173 179 171 179 188 176 180 177 176 171 183 179 179 182 173 172 176 174 171
35 77 105 117 73 353 319 251 159 221 178 175 163 182 194 213 184 165 148 148 95 94 78 74 68 54 10 93 104 125 142 158 148 127 129 126 121 113 109 120 118 105 111 116 120 117 140 121 95 68 79 135 153 160 173 181 171 175 168 169 175 145 148 163 147 184 175 181 175 179 153 157 177 190 187 185 191 174 161 165 167 185 177 179 175 184 147
36 45 60 43 51 136 27 5 333 129 183 185 161 120 97 108 302 46 23 53 115 86 96 160 58 21 36 332 198 182 235 13 129 128 113 132 133 132 129 116 120 119 125 128 138 134 125 131 136 123 106 108 146 157 175 186 171 174 181 177 149 139 157 163 173 182 177 177 167 150 148 177 177 147 158 184 192 177 166 171 164 176 175 173 168 180 155
355 11 4 26 22 49 31 28 43 42 70 62 96 97 99 79 32 121 167 168 100 178 189 272 162 339 313 54 31 56 92 94 77 133 141 154 157 155 157 159 153 151 148 140 134 115 134 111 106 128 143 129 114 125 147 148 153 78 79 101 121 130 139 149 154 149 151 153 146 152 160 153 143 169 188 188 186 165 160 158 161 162 166 169 175 153 129
342 355 355 359 30 6 5 330 52 24 49 87 107 138 142 143 161 119 285 198 261 273 257 223 252 269 271 96 67 54 63 86 158 147 191 160 158 189 197 184 196 165 160 164 123 109 99 106 114 162 163 134 151 142 87 84 138 98 118 111 121 131 138 138 133 133 136 148 148 149 145 156 173 172 186 186 185 182 166 161 162 164 173 177 169 145 139
326 296 271 259 263 251 75 31 334 266 169 164 109 62 344 229 220 248 265 277 263 274 298 261 210 297 274 273 242 127 107 135 154 176 175 204 194 197 190 204 202 219 192 133 151 136 101 116 129 203 182 152 137 114 79 71 100 129 137 121 122 125 132 136 136 142 143 141 130 136 146 161 169 169 171 170 177 180 178 163 152 153 154 157 158 151 149
321 306 304 312 304 305 308 274 227 287 323 323 327 16 357 349 325 255 244 217 46 322 269 218 205 240 218 238 238 130 140 234 174 168 195 180 198 191 72 59 55 52 66 71 87 86 119 132 182 177 145 106 100 107 101 107 172 150 127 133 130 131 134 140 145 145 148 147 153 156 157 164 175 165 170 191 183 154 145 128 132 138 149 157 157 163 163
325 312 303 298 299 308 289 305 324 313 294 294 285 281 295 253 256 258 245 222 171 275 272 259 241 242 236 246 261 221 206 203 230 190 178 170 194 142 91 91 69 72 70 63 91 114 115 240 208 140 151 122 123 143 141 132 156 135 129 124 131 136 147 145 142 141 142 144 132 126 125 125 125 119 118 109 112 122 129 120 125 139 143 149 158 153 157
352 318 326 327 339 314 311 304 299 288 289 289 296 284 268 267 282 260 254 255 259 250 253 251 253 279 270 247 238 242 200 165 200 214 175 177 183 181 184 130 136 103 79 95 109 126 165 209 154 151 140 147 128 144 140 182 166 135 136 136 135 128 124 129 128 129 127 127 127 133 132 136 126 128 129 137 138 139 139 142 141 145 147 151 149 145 148
332 326 328 349 1 5 326 298 273 249 256 264 265 269 294 280 272 268 270 260 258 266 266 65 51 1 326 252 245 242 202 192 202 198 207 211 230 260 177 131 116 101 107 100 109 114 131 149 134 145 146 134 122 149 161 175 143 140 140 144 144 149 147 148 150 141 134 139 147 146 135 129 130 128 134 140 146 149 142 139 139 141 146 145 150 157 161
318 314 309 323 297 270 277 276 145 147 199 249 226 56 53 291 268 261 259 234 238 263 282 281 108 175 253 236 225 229 214 183 179 175 160 46 21 12 359 141 117 116 179 156 150 153 152 154 154 115 78 103 124 123 168 130 120 128 130 129 124 131 134 139 133 132 137 138 145 145 147 150 158 154 159 158 155 145 139 132 129 128 127 136 149 171 185
274 302 279 237 257 313 310 288 242 225 189 124 51 33 152 154 245 315 330 340 20 307 278 287 286 79 121 156 185 187 172 168 175 169 163 147 185 82 41 139 140 143 233 200 178 154 137 117 100 105 110 124 141 176 147 129 132 125 125 129 135 139 143 153 153 157 159 161 162 157 149 145 142 140 142 137 132 137 140 142 148 159 169 175 181 185 192
267 298 263 247 243 257 262 277 311 327 106 134 89 28 3 80 56 34 321 13 351 17 44 120 167 188 166 147 158 171 181 165 162 172 188 186 174 153 80 67 122 161 186 295 164 150 127 99 117 132 144 156 174 208 157 133 141 140 144 151 157 158 152 147 134 126 119 120 109 106 113 129 137 144 150 148 150 149 154 161 167 166 170 178 182 186 187
243 260 252 217 242 229 282 277 258 292 288 250 138 127 31 6 67 90 89 108 137 180 111 125 149 165 181 155 137 145 141 138 140 140 36 355 218 131 147 175 150 105 11 309 109 96 97 112 134 151 159 184 182 226 179 146 142 145 143 137 126 120 120 124 130 139 144 145 145 147 152 154 152 155 147 152 159 161 160 168 171 174 174 177 179 178 174
225 239 280 276 161 161 225 285 42 259 278 283 234 184 148 184 204 154 104 87 99 135 131 127 139 149 151 157 150 154 155 161 166 176 121 101 87 95 90 64 55 31 3 180 109 115 116 131 144 161 185 197 213 203 130 134 132 141 138 140 140 144 143 145 150 150 151 151 149 150 148 154 157 149 151 156 162 163 151 174 179 171 163 154 144 144 153
224 224 250 240 116 177 235 244 249 259 244 246 299 279 175 232 241 149 124 116 130 158 142 134 132 146 157 152 273 236 85 169 142 129 128 118 120 134 147 139 97 100 85 75 78 88 109 133 159 182 210 209 255 185 143 147 144 141 140 147 154 150 151 149 150 146 146 139 154 155 161 165 160 158 160 168 163 160 162 169 169 169 165 162 156 152 137
258 227 220 210 184 212 244 272 259 262 287 262 258 217 94 78 223 212 155 135 149 153 143 134 140 136 136 142 169 156 45 344 275 134 119 136 140 134 109 98 131 167 100 94 106 110 122 153 173 199 209 244 242 136 139 138 142 137 143 140 145 139 142 142 144 145 145 157 167 161 171 170 174 162 172 179 176 169 167 177 172 182 186 173 155 138 118
234 233 228 220 220 232 220 240 259 207 220 200 223 224 198 226 246 213 187 184 124 104 159 153 166 153 151 155 148 113 63 334 148 127 139 122 110 118 133 137 124 104 99 108 106 116 114 184 219 233 235 242 174 133 136 136 142 145 137 135 138 141 124 127 132 135 154 161 169 168 172 169 171 145 156 176 166 159 149 88 71 69 68 83 109 111 113
203 223 221 224 234 241 219 231 263 284 307 354 285 261 235 226 112 333 295 6 174 169 172 146 169 159 150 139 152 168 175 177 145 149 139 128 129 134 133 124 118 113 114 122 128 133 152 173 177 178 230 221 132 141 144 146 141 138 141 145 135 135 131 142 158 166 162 164 169 163 164 163 165 163 166 146 140 158 146 126 127 116 119 115 112 114 111
263 257 187 212 227 228 226 218 229 253 262 251 271 281 285 293 188 207 157 202 249 170 173 169 172 165 167 174 170 159 153 141 163 159 131 132 141 146 131 131 129 128 140 138 137 146 151 156 160 223 260 149 142 146 130 150 144 147 145 141 131 91 49 68 137 130 139 176 164 164 178 179 176 176 168 173 155 130 129 125 114 107 99 96 93 93 99